User: anonymous   Login
Location: Unspecified
(0.0000°N, 0.0000°E)
Time: 19:22:45
(UTC+00:00)
Language:

STUDSAT - Orbit

View from above orbital plane
View from above orbital plane
View from above satellite
View from above satellite

Ground track
Ground track

The orbit data is extracted from the following two-line orbital elements,

1 36796U 10035B   18139.89255902 +.00000233 +00000-0 +32134-4 0  9997
2 36796 098.0585 262.3504 0011885 324.8706 035.1725 14.87397042425394
Epoch (UTC): 19 May 2018 21:25:17
Eccentricity: 0.0011885
inclination: 98.0585°
perigee height: 598 km
apogee height: 614 km
right ascension of ascending node: 262.3504°
argument of perigee: 324.8706°
revolutions per day: 14.87397042
mean anomaly at epoch: 35.1725°
orbit number at epoch: 42539

The dashed part of the orbit path shows where the satellite is in the earth's shadow,  

DLR